| time (UTC) | temp F | wind direction | speed MPH | gust MPH | rain 1hr in | rain 24hr in | rain mn in | humidity % | barometer mb |
| 20260901000510 | 74 | 181 | 0.0 | 0.0 | 0.00 | 0.06 | 0.06 | 86 | 1017.6 |
| 20260901000010 | 74 | 182 | 0.0 | 0.0 | 0.00 | 0.06 | 0.06 | 86 | 1017.7 |
| 20260831235515 | 74 | 182 | 0.0 | 1.0 | 0.00 | 0.06 | 0.06 | 86 | 1017.7 |
| 20260831235011 | 74 | 182 | 0.0 | 1.0 | 0.00 | 0.06 | 0.06 | 85 | 1017.7 |
| 20260831234510 | 74 | 182 | 0.0 | 1.0 | 0.00 | 0.06 | 0.06 | 85 | 1017.8 |
| 20260831234010 | 75 | 170 | 0.0 | 1.0 | 0.00 | 0.06 | 0.06 | 85 | 1017.9 |
| 20260831233510 | 75 | 191 | 0.0 | 2.0 | 0.00 | 0.06 | 0.06 | 85 | 1017.9 |
| 20260831233009 | 75 | 217 | 0.0 | 2.0 | 0.00 | 0.06 | 0.06 | 84 | 1018.0 |
| 20260831232513 | 75 | 109 | 0.0 | 2.0 | 0.00 | 0.06 | 0.06 | 84 | 1017.9 |
| 20260831232010 | 75 | 150 | 0.0 | 2.0 | 0.00 | 0.06 | 0.06 | 84 | 1018.1 |
| 20260831231509 | 75 | 202 | 0.0 | 3.0 | 0.00 | 0.06 | 0.06 | 83 | 1018.1 |
| 20260831231008 | 75 | 120 | 0.0 | 3.0 | 0.00 | 0.06 | 0.06 | 83 | 1018.0 |
| 20260831230508 | 76 | 150 | 0.0 | 3.0 | 0.00 | 0.06 | 0.06 | 83 | 1017.9 |
| 20260831230008 | 76 | 147 | 1.0 | 4.0 | 0.00 | 0.06 | 0.06 | 83 | 1018.0 |
| 20260831225506 | 76 | 77 | 1.0 | 4.0 | 0.00 | 0.06 | 0.06 | 83 | 1017.9 |
| 20260831225008 | 76 | 102 | 1.0 | 3.0 | 0.00 | 0.06 | 0.06 | 83 | 1017.9 |
| 20260831224508 | 76 | 67 | 0.0 | 3.0 | 0.00 | 0.06 | 0.06 | 82 | 1018.0 |
| 20260831224006 | 76 | 101 | 1.0 | 3.0 | 0.00 | 0.06 | 0.06 | 82 | 1018.2 |
| 20260831223506 | 76 | 67 | 1.0 | 2.0 | 0.00 | 0.06 | 0.06 | 82 | 1018.1 |
| 20260831223014 | 76 | 123 | 0.0 | 4.0 | 0.00 | 0.06 | 0.06 | 82 | 1018.2 |
| 20260831222506 | 76 | 103 | 2.0 | 4.0 | 0.00 | 0.06 | 0.06 | 81 | 1018.2 |
| 20260831222005 | 76 | 130 | 0.0 | 5.0 | 0.00 | 0.06 | 0.06 | 81 | 1018.2 |
| 20260831221511 | 76 | 148 | 1.0 | 5.0 | 0.00 | 0.06 | 0.06 | 81 | 1018.2 |
| 20260831221004 | 76 | 174 | 1.0 | 6.0 | 0.00 | 0.06 | 0.06 | 80 | 1018.2 |
| 20260831220504 | 77 | 92 | 1.0 | 6.0 | 0.00 | 0.06 | 0.06 | 80 | 1018.3 |
| 20260831220006 | 77 | 164 | 1.0 | 6.0 | 0.00 | 0.06 | 0.06 | 80 | 1018.5 |
| 20260831215506 | 77 | 124 | 2.0 | 6.0 | 0.00 | 0.06 | 0.06 | 79 | 1018.5 |
| 20260831215004 | 77 | 80 | 2.0 | 8.0 | 0.00 | 0.06 | 0.06 | 79 | 1018.4 |
| 20260831214503 | 77 | 129 | 3.0 | 8.0 | 0.00 | 0.06 | 0.06 | 78 | 1018.3 |
| 20260831214003 | 78 | 153 | 1.0 | 7.0 | 0.00 | 0.06 | 0.06 | 78 | 1018.3 |
| 20260831213503 | 78 | 132 | 3.0 | 7.0 | 0.00 | 0.06 | 0.06 | 77 | 1018.3 |
| 20260831213002 | 78 | 128 | 2.0 | 9.0 | 0.00 | 0.06 | 0.06 | 77 | 1018.3 |
| 20260831212502 | 79 | 48 | 4.0 | 9.0 | 0.00 | 0.06 | 0.06 | 76 | 1018.2 |
| 20260831212002 | 79 | 88 | 2.0 | 6.0 | 0.00 | 0.06 | 0.06 | 76 | 1018.2 |
| 20260831211505 | 79 | 139 | 2.0 | 9.0 | 0.00 | 0.06 | 0.06 | 76 | 1018.2 |
| 20260831211002 | 79 | 82 | 1.0 | 11.0 | 0.00 | 0.06 | 0.06 | 75 | 1018.1 |
| 20260831210500 | 79 | 330 | 2.0 | 11.0 | 0.00 | 0.06 | 0.06 | 75 | 1018.1 |
| 20260831210103 | 80 | 140 | 3.0 | 10.0 | 0.00 | 0.06 | 0.06 | 75 | 1018.1 |
| 20260831205603 | 80 | 78 | 4.0 | 8.0 | 0.00 | 0.06 | 0.06 | 75 | 1018.1 |
| 20260831205100 | 80 | 130 | 3.0 | 8.0 | 0.00 | 0.06 | 0.06 | 75 | 1018.1 |
| 20260831204600 | 80 | 87 | 2.0 | 9.0 | 0.00 | 0.06 | 0.06 | 76 | 1018.1 |
| 20260831204100 | 79 | 215 | 3.0 | 9.0 | 0.00 | 0.06 | 0.06 | 75 | 1018.2 |
| 20260831203559 | 79 | 123 | 3.0 | 8.0 | 0.00 | 0.06 | 0.06 | 79 | 1018.2 |
| 20260831203501 | 79 | 128 | 3.0 | 7.0 | 0.00 | 0.06 | 0.06 | 78 | 1018.2 |
| 20260831203059 | 79 | 124 | 3.0 | 7.0 | 0.00 | 0.06 | 0.06 | 78 | 1018.3 |
| 20260831202558 | 78 | 105 | 3.0 | 6.0 | 0.00 | 0.06 | 0.06 | 79 | 1018.2 |
| 20260831202058 | 78 | 92 | 3.0 | 9.0 | 0.00 | 0.06 | 0.06 | 78 | 1018.1 |
| 20260831201604 | 79 | 98 | 3.0 | 9.0 | 0.00 | 0.06 | 0.06 | 78 | 1018.2 |
| 20260831201059 | 79 | 123 | 2.0 | 6.0 | 0.00 | 0.06 | 0.06 | 78 | 1018.3 |
| 20260831200557 | 79 | 117 | 2.0 | 7.0 | 0.00 | 0.06 | 0.06 | 78 | 1018.3 |
| 20260831200058 | 79 | 88 | 3.0 | 7.0 | 0.00 | 0.06 | 0.06 | 78 | 1018.3 |
| 20260831195558 | 79 | 59 | 3.0 | 5.0 | 0.00 | 0.06 | 0.06 | 77 | 1018.4 |
| 20260831195057 | 79 | 77 | 2.0 | 8.0 | 0.00 | 0.06 | 0.06 | 77 | 1018.5 |
| 20260831194638 | 79 | 92 | 3.0 | 5.0 | 0.00 | 0.06 | 0.06 | 76 | 1018.5 |
| 20260831194056 | 79 | 89 | 1.0 | 6.0 | 0.00 | 0.06 | 0.06 | 76 | 1018.5 |
| 20260831193555 | 79 | 139 | 2.0 | 6.0 | 0.00 | 0.06 | 0.06 | 76 | 1018.5 |
| 20260831193055 | 79 | 113 | 2.0 | 7.0 | 0.00 | 0.06 | 0.06 | 76 | 1018.4 |
| 20260831192554 | 79 | 94 | 1.0 | 8.0 | 0.00 | 0.06 | 0.06 | 75 | 1018.4 |
| 20260831192054 | 80 | 137 | 3.0 | 8.0 | 0.00 | 0.06 | 0.06 | 74 | 1018.4 |
| 20260831191556 | 80 | 64 | 2.0 | 7.0 | 0.00 | 0.06 | 0.06 | 74 | 1018.4 |
| 20260831191053 | 80 | 71 | 3.0 | 7.0 | 0.00 | 0.06 | 0.06 | 72 | 1018.6 |
| 20260831190553 | 81 | 142 | 2.0 | 7.0 | 0.00 | 0.06 | 0.06 | 72 | 1018.6 |
| 20260831185553 | 82 | 117 | 2.0 | 7.0 | 0.00 | 0.06 | 0.06 | 72 | 1018.6 |
| 20260831185054 | 81 | 86 | 0.0 | 7.0 | 0.00 | 0.06 | 0.06 | 71 | 1018.6 |
| 20260831184558 | 81 | 96 | 2.0 | 8.0 | 0.00 | 0.06 | 0.06 | 70 | 1018.6 |
| 20260831184051 | 82 | 25 | 2.0 | 7.0 | 0.00 | 0.06 | 0.06 | 71 | 1018.6 |
| 20260831183552 | 80 | 72 | 1.0 | 5.0 | 0.00 | 0.06 | 0.06 | 74 | 1018.6 |
| 20260831183051 | 80 | 140 | 2.0 | 6.0 | 0.00 | 0.06 | 0.06 | 74 | 1018.6 |
| 20260831182550 | 80 | 100 | 3.0 | 6.0 | 0.00 | 0.06 | 0.06 | 74 | 1018.6 |
| 20260831182050 | 80 | 138 | 1.0 | 7.0 | 0.00 | 0.06 | 0.06 | 74 | 1018.7 |
| 20260831181551 | 80 | 87 | 2.0 | 7.0 | 0.00 | 0.06 | 0.06 | 74 | 1018.8 |
| 20260831181052 | 80 | 205 | 2.0 | 6.0 | 0.00 | 0.06 | 0.06 | 74 | 1018.8 |
| 20260831180548 | 80 | 132 | 2.0 | 5.0 | 0.00 | 0.06 | 0.06 | 74 | 1018.9 |
| 20260831180049 | 80 | 112 | 2.0 | 5.0 | 0.00 | 0.06 | 0.06 | 74 | 1018.8 |
| 20260831175548 | 80 | 82 | 3.0 | 5.0 | 0.00 | 0.06 | 0.06 | 74 | 1018.8 |
| 20260831175048 | 80 | 42 | 2.0 | 7.0 | 0.00 | 0.06 | 0.06 | 73 | 1018.9 |
| 20260831174551 | 80 | 135 | 2.0 | 9.0 | 0.00 | 0.06 | 0.06 | 75 | 1018.9 |
| 20260831174050 | 80 | 96 | 3.0 | 8.0 | 0.00 | 0.06 | 0.06 | 73 | 1018.9 |
| 20260831173546 | 80 | 117 | 1.0 | 4.0 | 0.00 | 0.06 | 0.06 | 75 | 1019.0 |
| 20260831173048 | 80 | 115 | 2.0 | 4.0 | 0.00 | 0.06 | 0.06 | 74 | 1018.9 |
| 20260831172546 | 80 | 248 | 2.0 | 4.0 | 0.00 | 0.06 | 0.06 | 75 | 1018.9 |
| 20260831172046 | 80 | 119 | 2.0 | 6.0 | 0.00 | 0.06 | 0.06 | 75 | 1018.9 |
| 20260831171547 | 80 | 114 | 2.0 | 6.0 | 0.00 | 0.06 | 0.06 | 74 | 1019.0 |
| 20260831171045 | 80 | 225 | 0.0 | 3.0 | 0.00 | 0.06 | 0.06 | 75 | 1019.0 |
| 20260831170544 | 79 | 96 | 1.0 | 4.0 | 0.00 | 0.06 | 0.06 | 73 | 1019.0 |
| 20260831170045 | 80 | 143 | 1.0 | 6.0 | 0.00 | 0.06 | 0.06 | 74 | 1018.9 |
| 20260831165543 | 80 | 80 | 3.0 | 6.0 | 0.00 | 0.06 | 0.06 | 72 | 1019.0 |
| 20260831165043 | 80 | 156 | 2.0 | 8.0 | 0.00 | 0.06 | 0.06 | 72 | 1018.9 |
| 20260831164543 | 81 | 79 | 1.0 | 8.0 | 0.00 | 0.06 | 0.06 | 73 | 1018.9 |
| 20260831164043 | 82 | 161 | 2.0 | 8.0 | 0.00 | 0.06 | 0.06 | 70 | 1018.9 |
| 20260831163542 | 82 | 160 | 4.0 | 8.0 | 0.00 | 0.06 | 0.06 | 70 | 1018.9 |
| 20260831163042 | 82 | 111 | 2.0 | 5.0 | 0.00 | 0.06 | 0.06 | 69 | 1019.0 |
| 20260831162541 | 81 | 208 | 1.0 | 7.0 | 0.00 | 0.06 | 0.06 | 71 | 1019.0 |
| 20260831162043 | 81 | 88 | 2.0 | 4.0 | 0.00 | 0.06 | 0.06 | 73 | 1019.0 |
| 20260831161541 | 80 | 115 | 1.0 | 7.0 | 0.00 | 0.06 | 0.06 | 71 | 1019.1 |
| 20260831161042 | 80 | 90 | 3.0 | 7.0 | 0.00 | 0.06 | 0.06 | 70 | 1019.1 |
| 20260831160538 | 81 | 38 | 1.0 | 6.0 | 0.00 | 0.06 | 0.06 | 70 | 1019.2 |
| 20260831160039 | 81 | 109 | 1.0 | 7.0 | 0.00 | 0.06 | 0.06 | 70 | 1019.2 |
| 20260831155538 | 81 | 144 | 1.0 | 7.0 | 0.00 | 0.06 | 0.06 | 69 | 1019.2 |
| 20260831155039 | 81 | 80 | 2.0 | 8.0 | 0.00 | 0.06 | 0.06 | 69 | 1019.2 |
| 20260831154541 | 81 | 153 | 4.0 | 8.0 | 0.00 | 0.06 | 0.06 | 68 | 1019.1 |
| 20260831154036 | 82 | 187 | 1.0 | 7.0 | 0.00 | 0.06 | 0.06 | 68 | 1019.1 |
| 20260831153536 | 81 | 37 | 1.0 | 10.0 | 0.00 | 0.06 | 0.06 | 70 | 1019.0 |
| 20260831153038 | 82 | 121 | 3.0 | 10.0 | 0.00 | 0.06 | 0.06 | 69 | 1019.0 |
| 20260831152534 | 81 | 262 | 1.0 | 5.0 | 0.00 | 0.06 | 0.06 | 72 | 1019.1 |
| 20260831152035 | 81 | 123 | 1.0 | 4.0 | 0.00 | 0.06 | 0.06 | 72 | 1019.1 |
| 20260831151534 | 81 | 84 | 1.0 | 4.0 | 0.00 | 0.06 | 0.06 | 74 | 1019.1 |
| 20260831151035 | 81 | 88 | 1.0 | 4.0 | 0.00 | 0.06 | 0.06 | 71 | 1019.2 |
| 20260831150531 | 81 | 222 | 0.0 | 5.0 | 0.00 | 0.06 | 0.06 | 75 | 1019.2 |
| 20260831150031 | 81 | 91 | 2.0 | 8.0 | 0.00 | 0.06 | 0.06 | 74 | 1019.2 |
| 20260831145530 | 80 | 114 | 2.0 | 8.0 | 0.00 | 0.06 | 0.06 | 74 | 1019.2 |
| 20260831145028 | 80 | 26 | 2.0 | 11.0 | 0.00 | 0.06 | 0.06 | 75 | 1019.2 |
| 20260831144527 | 80 | 65 | 3.0 | 11.0 | 0.00 | 0.06 | 0.06 | 76 | 1019.2 |
| 20260831144026 | 79 | 36 | 1.0 | 6.0 | 0.00 | 0.06 | 0.06 | 78 | 1019.2 |
| 20260831143529 | 79 | 108 | 2.0 | 6.0 | 0.00 | 0.06 | 0.06 | 78 | 1019.2 |
| 20260831143025 | 78 | 130 | 2.0 | 7.0 | 0.00 | 0.06 | 0.06 | 80 | 1019.1 |
| 20260831142527 | 77 | 80 | 2.0 | 7.0 | 0.00 | 0.06 | 0.06 | 80 | 1019.1 |
| 20260831142023 | 77 | 60 | 2.0 | 9.0 | 0.00 | 0.06 | 0.06 | 80 | 1019.1 |
| 20260831141523 | 78 | 22 | 0.0 | 5.0 | 0.00 | 0.06 | 0.06 | 79 | 1019.1 |
| 20260831141022 | 78 | 148 | 2.0 | 5.0 | 0.00 | 0.06 | 0.06 | 79 | 1019.1 |
| 20260831140521 | 78 | 113 | 0.0 | 4.0 | 0.00 | 0.06 | 0.06 | 82 | 1019.1 |
| 20260831140023 | 78 | 79 | 2.0 | 4.0 | 0.00 | 0.06 | 0.06 | 81 | 1019.2 |
| 20260831135520 | 78 | 355 | 1.0 | 6.0 | 0.00 | 0.06 | 0.06 | 83 | 1019.2 |
| 20260831135020 | 77 | 360 | 1.0 | 4.0 | 0.00 | 0.06 | 0.06 | 84 | 1019.2 |
| 20260831134519 | 76 | 108 | 2.0 | 4.0 | 0.00 | 0.06 | 0.06 | 85 | 1019.2 |
| 20260831134018 | 76 | 87 | 0.0 | 3.0 | 0.00 | 0.06 | 0.06 | 87 | 1019.2 |
| 20260831133517 | 75 | 102 | 0.0 | 7.0 | 0.00 | 0.06 | 0.06 | 89 | 1019.2 |
| 20260831133018 | 75 | 124 | 0.0 | 7.0 | 0.00 | 0.06 | 0.06 | 90 | 1019.2 |
| 20260831132518 | 74 | 126 | 1.0 | 6.0 | 0.00 | 0.06 | 0.06 | 90 | 1019.3 |
| 20260831132017 | 74 | 45 | 2.0 | 6.0 | 0.00 | 0.06 | 0.06 | 92 | 1019.3 |
| 20260831131518 | 73 | 117 | 2.0 | 4.0 | 0.00 | 0.06 | 0.06 | 92 | 1019.3 |
| 20260831131019 | 73 | 103 | 1.0 | 4.0 | 0.00 | 0.06 | 0.06 | 93 | 1019.3 |
| 20260831130517 | 73 | 78 | 0.0 | 6.0 | 0.00 | 0.06 | 0.06 | 93 | 1019.3 |
| 20260831130017 | 73 | 49 | 1.0 | 6.0 | 0.00 | 0.06 | 0.06 | 93 | 1019.4 |
| 20260831125519 | 73 | 107 | 1.0 | 3.0 | 0.00 | 0.06 | 0.06 | 93 | 1019.3 |
| 20260831125016 | 73 | 346 | 0.0 | 3.0 | 0.00 | 0.06 | 0.06 | 94 | 1019.3 |
| 20260831124516 | 72 | 54 | 1.0 | 3.0 | 0.00 | 0.06 | 0.06 | 93 | 1019.4 |
| 20260831124015 | 72 | 66 | 0.0 | 4.0 | 0.00 | 0.06 | 0.06 | 94 | 1019.3 |
| 20260831123516 | 72 | 53 | 1.0 | 6.0 | 0.00 | 0.06 | 0.06 | 94 | 1019.2 |
| 20260831123014 | 72 | 44 | 1.0 | 6.0 | 0.00 | 0.06 | 0.06 | 94 | 1019.2 |
| 20260831122514 | 72 | 34 | 1.0 | 5.0 | 0.00 | 0.06 | 0.06 | 94 | 1019.3 |
| 20260831122016 | 72 | 64 | 0.0 | 4.0 | 0.00 | 0.06 | 0.06 | 94 | 1019.3 |
| 20260831121513 | 72 | 21 | 0.0 | 4.0 | 0.00 | 0.06 | 0.06 | 94 | 1019.3 |
| 20260831121014 | 72 | 5 | 0.0 | 2.0 | 0.00 | 0.06 | 0.06 | 94 | 1019.1 |
| 20260831120511 | 72 | 43 | 0.0 | 2.0 | 0.00 | 0.06 | 0.06 | 94 | 1019.0 |
| 20260831120012 | 71 | 62 | 0.0 | 2.0 | 0.00 | 0.06 | 0.06 | 94 | 1018.9 |
| 20260831115510 | 71 | 53 | 0.0 | 1.0 | 0.00 | 0.06 | 0.06 | 94 | 1018.8 |
| 20260831115012 | 71 | 53 | 0.0 | 1.0 | 0.00 | 0.06 | 0.06 | 94 | 1018.9 |
| 20260831114511 | 71 | 55 | 0.0 | 1.0 | 0.00 | 0.06 | 0.06 | 94 | 1019.0 |
| 20260831114010 | 71 | 55 | 0.0 | 1.0 | 0.00 | 0.06 | 0.06 | 94 | 1019.0 |
| 20260831113510 | 71 | 55 | 0.0 | 0.0 | 0.00 | 0.06 | 0.06 | 94 | 1019.0 |
| 20260831113012 | 71 | 55 | 0.0 | 0.0 | 0.00 | 0.06 | 0.06 | 94 | 1019.0 |
| 20260831112513 | 71 | 55 | 0.0 | 1.0 | 0.00 | 0.06 | 0.06 | 94 | 1018.9 |
| 20260831112009 | 71 | 55 | 0.0 | 1.0 | 0.00 | 0.06 | 0.06 | 94 | 1018.9 |
| 20260831111509 | 71 | 55 | 0.0 | 0.0 | 0.00 | 0.06 | 0.06 | 94 | 1018.8 |
| 20260831111007 | 71 | 55 | 0.0 | 1.0 | 0.00 | 0.06 | 0.06 | 93 | 1018.8 |
| 20260831110508 | 71 | 55 | 0.0 | 1.0 | 0.00 | 0.06 | 0.06 | 93 | 1018.7 |
| 20260831110006 | 71 | 55 | 0.0 | 1.0 | 0.00 | 0.06 | 0.06 | 93 | 1018.6 |
| 20260831105508 | 71 | 55 | 0.0 | 1.0 | 0.00 | 0.06 | 0.06 | 93 | 1018.6 |
| 20260831105010 | 71 | 95 | 0.0 | 1.0 | 0.00 | 0.06 | 0.06 | 93 | 1018.6 |
| 20260831104515 | 71 | 94 | 0.0 | 0.0 | 0.00 | 0.06 | 0.06 | 93 | 1018.6 |
| 20260831104006 | 71 | 94 | 0.0 | 1.0 | 0.00 | 0.06 | 0.06 | 93 | 1018.6 |
| 20260831103504 | 71 | 94 | 0.0 | 1.0 | 0.00 | 0.06 | 0.06 | 93 | 1018.5 |
| 20260831103005 | 71 | 94 | 0.0 | 1.0 | 0.00 | 0.06 | 0.06 | 93 | 1018.6 |
| 20260831102506 | 71 | 95 | 0.0 | 1.0 | 0.00 | 0.06 | 0.06 | 93 | 1018.5 |
| 20260831102005 | 71 | 94 | 0.0 | 1.0 | 0.00 | 0.06 | 0.06 | 93 | 1018.5 |
| 20260831101506 | 71 | 137 | 0.0 | 1.0 | 0.00 | 0.06 | 0.06 | 93 | 1018.5 |
| 20260831101003 | 71 | 137 | 0.0 | 1.0 | 0.00 | 0.06 | 0.06 | 93 | 1018.4 |
| 20260831100502 | 71 | 137 | 0.0 | 1.0 | 0.00 | 0.06 | 0.06 | 93 | 1018.3 |
| 20260831100001 | 71 | 137 | 0.0 | 1.0 | 0.00 | 0.06 | 0.06 | 93 | 1018.2 |
| 20260831095505 | 71 | 137 | 0.0 | 1.0 | 0.00 | 0.06 | 0.06 | 93 | 1018.1 |
| 20260831095001 | 71 | 137 | 0.0 | 1.0 | 0.00 | 0.06 | 0.06 | 93 | 1017.9 |
| 20260831094503 | 71 | 117 | 0.0 | 2.0 | 0.00 | 0.06 | 0.06 | 93 | 1017.8 |
| 20260831094001 | 71 | 117 | 0.0 | 2.0 | 0.00 | 0.06 | 0.06 | 93 | 1017.7 |
| 20260831093602 | 71 | 167 | 0.0 | 1.0 | 0.00 | 0.06 | 0.06 | 93 | 1017.7 |
| 20260831093101 | 71 | 178 | 0.0 | 1.0 | 0.00 | 0.06 | 0.06 | 93 | 1017.8 |
| 20260831092600 | 71 | 178 | 0.0 | 1.0 | 0.00 | 0.06 | 0.06 | 93 | 1017.8 |
| 20260831092059 | 71 | 178 | 0.0 | 2.0 | 0.00 | 0.06 | 0.06 | 93 | 1017.8 |
| 20260831091603 | 71 | 178 | 0.0 | 2.0 | 0.00 | 0.06 | 0.06 | 93 | 1017.8 |
| 20260831091058 | 71 | 207 | 0.0 | 2.0 | 0.00 | 0.06 | 0.06 | 93 | 1017.8 |
| 20260831090558 | 71 | 221 | 1.0 | 2.0 | 0.00 | 0.06 | 0.06 | 93 | 1017.7 |
| 20260831090058 | 71 | 207 | 0.0 | 2.0 | 0.00 | 0.06 | 0.06 | 93 | 1017.7 |
| 20260831085558 | 71 | 207 | 0.0 | 2.0 | 0.00 | 0.06 | 0.06 | 93 | 1017.6 |
| 20260831085057 | 71 | 207 | 0.0 | 1.0 | 0.00 | 0.06 | 0.06 | 92 | 1017.6 |
| 20260831084634 | 71 | 207 | 0.0 | 1.0 | 0.00 | 0.06 | 0.06 | 92 | 1017.7 |
| 20260831084055 | 71 | 207 | 0.0 | 1.0 | 0.01 | 0.06 | 0.06 | 92 | 1017.7 |
| 20260831083555 | 71 | 207 | 0.0 | 2.0 | 0.02 | 0.06 | 0.06 | 92 | 1017.7 |
| 20260831083056 | 71 | 207 | 0.0 | 3.0 | 0.02 | 0.06 | 0.06 | 92 | 1017.8 |
| 20260831082555 | 71 | 212 | 1.0 | 3.0 | 0.03 | 0.06 | 0.06 | 92 | 1017.8 |
| 20260831082055 | 71 | 148 | 0.0 | 2.0 | 0.03 | 0.06 | 0.06 | 92 | 1017.8 |
| 20260831081555 | 71 | 110 | 0.0 | 3.0 | 0.03 | 0.06 | 0.06 | 91 | 1017.8 |
| 20260831081056 | 72 | 72 | 0.0 | 3.0 | 0.03 | 0.06 | 0.06 | 91 | 1017.8 |
| 20260831080554 | 72 | 98 | 0.0 | 4.0 | 0.03 | 0.06 | 0.06 | 91 | 1017.8 |
| 20260831080105 | 72 | 96 | 1.0 | 4.0 | 0.03 | 0.06 | 0.06 | 91 | 1017.9 |
| 20260831075551 | 72 | 117 | 1.0 | 4.0 | 0.03 | 0.06 | 0.06 | 91 | 1017.8 |
| 20260831075051 | 72 | 74 | 0.0 | 3.0 | 0.04 | 0.06 | 0.06 | 91 | 1017.8 |
| 20260831074559 | 73 | 88 | 1.0 | 3.0 | 0.05 | 0.05 | 0.05 | 90 | 1017.9 |
| 20260831074050 | 73 | 78 | 0.0 | 4.0 | 0.05 | 0.05 | 0.05 | 90 | 1018.1 |
| 20260831073549 | 73 | 327 | 0.0 | 4.0 | 0.04 | 0.04 | 0.04 | 90 | 1018.1 |
| 20260831073048 | 73 | 80 | 0.0 | 3.0 | 0.04 | 0.04 | 0.04 | 90 | 1018.1 |
| 20260831072550 | 74 | 121 | 1.0 | 3.0 | 0.03 | 0.03 | 0.03 | 89 | 1018.2 |
| 20260831072046 | 74 | 216 | 1.0 | 3.0 | 0.03 | 0.03 | 0.03 | 89 | 1018.1 |
| 20260831071552 | 74 | 294 | 0.0 | 4.0 | 0.03 | 0.03 | 0.03 | 89 | 1018.1 |
| 20260831071045 | 75 | 118 | 1.0 | 4.0 | 0.03 | 0.03 | 0.03 | 90 | 1018.0 |
| 20260831070543 | 75 | 113 | 1.0 | 2.0 | 0.03 | 0.03 | 0.03 | 89 | 1017.9 |
| 20260831070043 | 75 | 113 | 0.0 | 1.0 | 0.03 | 0.03 | 0.03 | 89 | 1017.9 |
| 20260831065541 | 75 | 113 | 0.0 | 1.0 | 0.03 | 0.03 | 0.03 | 88 | 1017.9 |
| 20260831065042 | 75 | 113 | 0.0 | 1.0 | 0.02 | 0.02 | 0.02 | 88 | 1018.0 |
| 20260831064541 | 75 | 113 | 0.0 | 2.0 | 0.00 | 0.00 | 0.00 | 87 | 1018.1 |
| 20260831064040 | 75 | 113 | 0.0 | 3.0 | 0.00 | 0.00 | 0.00 | 87 | 1018.2 |
| 20260831063539 | 76 | 113 | 0.0 | 3.0 | 0.00 | 0.00 | 0.00 | 86 | 1018.3 |
| 20260831063038 | 76 | 56 | 0.0 | 1.0 | 0.00 | 0.00 | 0.00 | 87 | 1018.3 |
| 20260831062539 | 76 | 15 | 0.0 | 1.0 | 0.00 | 0.00 | 0.00 | 88 | 1018.3 |
| 20260831062038 | 76 | 332 | 0.0 | 2.0 | 0.00 | 0.00 | 0.00 | 88 | 1018.2 |
| 20260831061539 | 76 | 313 | 0.0 | 3.0 | 0.00 | 0.00 | 0.00 | 88 | 1018.3 |
| 20260831061034 | 76 | 281 | 1.0 | 4.0 | 0.00 | 0.00 | 0.00 | 88 | 1018.3 |
| 20260831060533 | 76 | 293 | 2.0 | 5.0 | 0.00 | 0.00 | 0.00 | 88 | 1018.3 |
| 20260831060039 | 76 | 215 | 1.0 | 5.0 | 0.00 | 0.00 | 0.00 | 88 | 1018.3 |
| 20260831055532 | 76 | 207 | 2.0 | 5.0 | 0.00 | 0.00 | 0.00 | 88 | 1018.3 |
| 20260831055032 | 76 | 234 | 2.0 | 5.0 | 0.00 | 0.00 | 0.00 | 88 | 1018.3 |
| 20260831054532 | 76 | 242 | 1.0 | 5.0 | 0.00 | 0.00 | 0.00 | 87 | 1018.3 |
| 20260831054033 | 76 | 250 | 2.0 | 6.0 | 0.00 | 0.00 | 0.00 | 87 | 1018.3 |
| 20260831053530 | 76 | 250 | 3.0 | 6.0 | 0.00 | 0.00 | 0.00 | 87 | 1018.3 |
| 20260831053035 | 76 | 242 | 1.0 | 7.0 | 0.00 | 0.00 | 0.00 | 87 | 1018.3 |
| 20260831052529 | 76 | 286 | 3.0 | 7.0 | 0.00 | 0.00 | 0.00 | 87 | 1018.3 |
| 20260831052029 | 76 | 258 | 2.0 | 6.0 | 0.00 | 0.00 | 0.00 | 87 | 1018.3 |
| 20260831051528 | 76 | 248 | 2.0 | 7.0 | 0.00 | 0.00 | 0.00 | 87 | 1018.2 |
| 20260831051028 | 76 | 246 | 2.0 | 9.0 | 0.00 | 0.00 | 0.00 | 86 | 1018.1 |
| 20260831050527 | 76 | 218 | 3.0 | 8.0 | 0.00 | 0.00 | 0.00 | 86 | 1018.1 |
| 20260831050031 | 76 | 200 | 2.0 | 8.0 | 0.00 | 0.00 | 0.00 | 86 | 1018.2 |
| 20260831045527 | 76 | 227 | 3.0 | 6.0 | 0.00 | 0.00 | 0.00 | 86 | 1018.0 |
| 20260831045029 | 76 | 233 | 3.0 | 7.0 | 0.00 | 0.00 | 0.00 | 86 | 1018.0 |
| 20260831044527 | 76 | 213 | 3.0 | 7.0 | 0.00 | 0.00 | 0.00 | 86 | 1018.1 |
| 20260831044026 | 76 | 237 | 3.0 | 9.0 | 0.00 | 0.00 | 0.00 | 86 | 1018.2 |
| 20260831043525 | 76 | 257 | 3.0 | 9.0 | 0.00 | 0.00 | 0.00 | 86 | 1018.2 |
| 20260831043034 | 76 | 238 | 3.0 | 7.0 | 0.00 | 0.00 | 0.00 | 86 | 1018.3 |
| 20260831042527 | 76 | 275 | 2.0 | 7.0 | 0.00 | 0.00 | 0.00 | 86 | 1018.2 |
| 20260831042023 | 76 | 254 | 1.0 | 7.0 | 0.00 | 0.00 | 0.00 | 86 | 1018.3 |
| 20260831041524 | 76 | 282 | 1.0 | 5.0 | 0.00 | 0.00 | 0.00 | 87 | 1018.3 |
| 20260831041022 | 76 | 234 | 1.0 | 5.0 | 0.00 | 0.00 | 0.00 | 86 | 1018.3 |
| 20260831040522 | 76 | 231 | 1.0 | 6.0 | 0.00 | 0.00 | 0.00 | 86 | 1018.3 |
| 20260831040021 | 76 | 272 | 1.0 | 5.0 | 0.00 | 0.00 | 0.00 | 86 | 1018.3 |
| 20260831035519 | 76 | 223 | 1.0 | 4.0 | 0.00 | 0.00 | 0.00 | 86 | 1018.3 |
| 20260831035019 | 76 | 221 | 1.0 | 7.0 | 0.00 | 0.00 | 0.00 | 86 | 1018.3 |
| 20260831034520 | 76 | 235 | 3.0 | 7.0 | 0.00 | 0.00 | 0.00 | 85 | 1018.4 |
| 20260831034019 | 76 | 220 | 2.0 | 5.0 | 0.00 | 0.00 | 0.00 | 85 | 1018.4 |
| 20260831033522 | 76 | 213 | 1.0 | 4.0 | 0.00 | 0.00 | 0.00 | 85 | 1018.4 |
| 20260831033020 | 76 | 231 | 2.0 | 4.0 | 0.00 | 0.00 | 0.00 | 85 | 1018.4 |
| 20260831032520 | 75 | 223 | 2.0 | 4.0 | 0.00 | 0.00 | 0.00 | 85 | 1018.4 |
| 20260831032018 | 75 | 225 | 1.0 | 4.0 | 0.00 | 0.00 | 0.00 | 86 | 1018.4 |
| 20260831031518 | 75 | 250 | 1.0 | 4.0 | 0.00 | 0.00 | 0.00 | 87 | 1018.4 |
| 20260831031016 | 75 | 214 | 1.0 | 3.0 | 0.00 | 0.00 | 0.00 | 88 | 1018.5 |
| 20260831030515 | 75 | 211 | 0.0 | 2.0 | 0.00 | 0.00 | 0.00 | 87 | 1018.5 |
| 20260831030015 | 75 | 265 | 0.0 | 2.0 | 0.00 | 0.00 | 0.00 | 87 | 1018.5 |
| 20260831025515 | 75 | 207 | 1.0 | 2.0 | 0.00 | 0.00 | 0.00 | 87 | 1018.5 |
| 20260831025015 | 75 | 200 | 1.0 | 2.0 | 0.00 | 0.00 | 0.00 | 87 | 1018.5 |
| 20260831024522 | 75 | 200 | 0.0 | 4.0 | 0.00 | 0.00 | 0.00 | 87 | 1018.6 |
| 20260831024014 | 75 | 213 | 1.0 | 4.0 | 0.00 | 0.00 | 0.00 | 87 | 1018.7 |
| 20260831023514 | 75 | 220 | 1.0 | 3.0 | 0.00 | 0.00 | 0.00 | 87 | 1018.6 |
| 20260831023012 | 75 | 221 | 1.0 | 3.0 | 0.00 | 0.00 | 0.00 | 87 | 1018.6 |
| 20260831022512 | 75 | 205 | 0.0 | 2.0 | 0.00 | 0.00 | 0.00 | 86 | 1018.8 |
| 20260831022011 | 75 | 204 | 0.0 | 2.0 | 0.00 | 0.00 | 0.00 | 86 | 1018.8 |
| 20260831021512 | 76 | 204 | 0.0 | 2.0 | 0.00 | 0.00 | 0.00 | 85 | 1018.9 |
| 20260831021010 | 76 | 244 | 0.0 | 3.0 | 0.00 | 0.00 | 0.00 | 85 | 1018.9 |
| 20260831020509 | 76 | 223 | 0.0 | 3.0 | 0.00 | 0.00 | 0.00 | 85 | 1018.8 |
| 20260831020009 | 76 | 211 | 1.0 | 4.0 | 0.00 | 0.00 | 0.00 | 85 | 1018.8 |
| 20260831015510 | 76 | 217 | 2.0 | 6.0 | 0.00 | 0.00 | 0.00 | 85 | 1018.8 |
| 20260831015008 | 76 | 230 | 2.0 | 6.0 | 0.00 | 0.00 | 0.00 | 85 | 1018.8 |
| 20260831014509 | 76 | 232 | 2.0 | 5.0 | 0.00 | 0.00 | 0.00 | 85 | 1018.7 |
| 20260831014007 | 76 | 215 | 2.0 | 5.0 | 0.00 | 0.00 | 0.00 | 86 | 1018.7 |
| 20260831013506 | 76 | 240 | 2.0 | 6.0 | 0.00 | 0.00 | 0.00 | 86 | 1018.8 |
| 20260831013006 | 76 | 219 | 3.0 | 7.0 | 0.00 | 0.00 | 0.00 | 85 | 1018.9 |
| 20260831012505 | 76 | 231 | 3.0 | 7.0 | 0.00 | 0.00 | 0.00 | 85 | 1018.9 |
| 20260831012005 | 76 | 257 | 2.0 | 6.0 | 0.00 | 0.00 | 0.00 | 85 | 1018.9 |
| 20260831011510 | 76 | 226 | 3.0 | 7.0 | 0.00 | 0.00 | 0.00 | 85 | 1018.9 |
| 20260831011002 | 76 | 238 | 3.0 | 7.0 | 0.00 | 0.00 | 0.00 | 85 | 1018.9 |
| 20260831010501 | 76 | 214 | 4.0 | 7.0 | 0.00 | 0.00 | 0.00 | 85 | 1018.8 |
| 20260831010112 | 76 | 236 | 3.0 | 9.0 | 0.00 | 0.00 | 0.00 | 85 | 1018.8 |
| 20260831005605 | 76 | 204 | 6.0 | 9.0 | 0.00 | 0.00 | 0.00 | 85 | 1018.7 |
| 20260831005059 | 76 | 183 | 5.0 | 12.0 | 0.00 | 0.00 | 0.00 | 85 | 1018.7 |
| 20260831004606 | 76 | 206 | 4.0 | 10.0 | 0.00 | 0.00 | 0.00 | 85 | 1018.7 |
| 20260831004059 | 76 | 211 | 5.0 | 10.0 | 0.00 | 0.00 | 0.00 | 85 | 1018.6 |
| 20260831003558 | 76 | 234 | 5.0 | 12.0 | 0.00 | 0.00 | 0.00 | 85 | 1018.5 |
| 20260831003108 | 76 | 213 | 5.0 | 11.0 | 0.00 | 0.00 | 0.00 | 85 | 1018.4 |
| 20260831002557 | 76 | 215 | 5.0 | 12.0 | 0.00 | 0.00 | 0.00 | 85 | 1018.4 |
| 20260831002056 | 76 | 210 | 5.0 | 12.0 | 0.00 | 0.00 | 0.00 | 85 | 1018.4 |
| 20260831001558 | 76 | 225 | 5.0 | 10.0 | 0.00 | 0.00 | 0.00 | 84 | 1018.4 |
| 20260831001056 | 76 | 229 | 5.0 | 10.0 | 0.00 | 0.00 | 0.00 | 84 | 1018.5 |